International Virtual Aviation Organisation

Russian Federation and Kazakhstan MCD

 

Карточка аэропорта UHPP

Внимание!
Информация на этой странице в стадии наполнения.
Если вы не увидели какой-то информации, или заметили неточность - пожалуйста сообщите нам!
Спасибо!
Команда RU-STAFF
Название аэропортаЕлизово
Название аэропорта (англ.)Yelizovo
Превышение131 ft. (39.9 m.)
Координаты53°10.002', 158°27.24'
Высота перехода2400m
Эшелон переходаQFE>756:FL90;756>QFE>729:FL100;729>QFE:FL110
Коды ответчика6630-6657
Зона ОрВДПетропавловск-Камчатский РПИ (UHPP)
Данные METARUHPP 140730Z 30002MPS 270V330 9999 SCT040CB 03/M04 Q1007 R34L/CLRD70 NOSIG RMK QFE751/1002
Проноз погоды (TAF)UHPP 140437Z 1406/1512 30005G15MPS 9999 SCT030CB TEMPO 1406/1412 27010G18MPS FM141200 33003G12MPS 9999 NSC TEMPO 1412/1424 27005G15MPS FM150000 30003G12MPS 9999 SCT040CB
NOTAMshow/hide NOTAM
AWOS   TABLE

Информация о ВПП

ВПП Длина ВПП (м.) Покрытие Курс ВПП Частота ILS
34R3400Бетон344110.3
16L3400Бетон164 
34L2500Бетон344 
16R2500Бетон164 

Диспетчерские позиции

Позывной Наименование органа УВД Частота
UHPP_TWRПетропавловск - Старт118.100
UHPP_R_APPПетропавловск - Круг119.400



Спутниковое изображение